SWR9AM LSZH-EGLL

Flight info

Callsign SWR9AM
Flight time N/A
Altitude 36000
Route VEBIT T10 TORPA DCT REKLA DCT RLP DCT ROTSI DCT KOTUN DCT NINAL DCT ABNUR DCT DIMAL DCT ALESO
Aircraft A21N/M-SDE2E3FGIRWXY/LB1

Departure

Time 2026-05-01 15:20
Airport Zürich Airport (LSZH)

Arrival

Time N/A
Airport London Heathrow Airport (EGLL)
Time Latitude Longitude Altitude Speed Heading
2026-05-01 14:57 47.45191 8.55695 1412 ft 0 kts 186°
2026-05-01 15:08 47.45203 8.55697 1416 ft 4 kts 180°
2026-05-01 15:08 47.45229 8.55693 1418 ft 4 kts 162°
2026-05-01 15:09 47.45253 8.55675 1416 ft 4 kts 140°
2026-05-01 15:09 47.45269 8.55647 1412 ft 4 kts 110°
2026-05-01 15:09 47.45273 8.55611 1412 ft 5 kts 74°
2026-05-01 15:09 47.45260 8.55589 1414 ft 4 kts
2026-05-01 15:10 47.45233 8.55589 1415 ft 5 kts 349°
2026-05-01 15:10 47.45197 8.55605 1417 ft 3 kts 335°
2026-05-01 15:14 47.45201 8.55603 1416 ft 3 kts 335°
2026-05-01 15:14 47.45299 8.55563 1412 ft 10 kts 337°
2026-05-01 15:15 47.45450 8.55457 1411 ft 13 kts 336°
2026-05-01 15:15 47.45625 8.55340 1409 ft 10 kts 351°
2026-05-01 15:16 47.45660 8.55544 1411 ft 14 kts 98°
2026-05-01 15:16 47.45635 8.55865 1414 ft 17 kts 94°
2026-05-01 15:17 47.45612 8.56246 1418 ft 20 kts 96°
2026-05-01 15:18 47.45564 8.56899 1426 ft 19 kts 96°
2026-05-01 15:18 47.45574 8.56988 1427 ft 9 kts 55°
2026-05-01 15:19 47.45667 8.56956 1429 ft 0 kts 275°
2026-05-01 15:19 47.45681 8.56733 1424 ft 62 kts 276°
2026-05-01 15:19 47.45757 8.55678 1411 ft 143 kts 276°
2026-05-01 15:20 47.45980 8.52177 2342 ft 178 kts 277°
2026-05-01 15:20 47.46115 8.50337 3123 ft 182 kts 277°
2026-05-01 15:20 47.46244 8.48472 3824 ft 187 kts 276°
2026-05-01 15:21 47.46132 8.46504 4391 ft 201 kts 251°
2026-05-01 15:21 47.45244 8.44836 4865 ft 220 kts 216°
2026-05-01 15:21 47.43859 8.43733 5433 ft 234 kts 208°
2026-05-01 15:21 47.42575 8.42096 5831 ft 253 kts 232°
2026-05-01 15:22 47.40484 8.37818 7252 ft 268 kts 234°
2026-05-01 15:22 47.39390 8.35523 7953 ft 276 kts 234°
2026-05-01 15:22 47.38289 8.33172 8777 ft 280 kts 237°
2026-05-01 15:23 47.37351 8.30631 9592 ft 285 kts 242°
2026-05-01 15:23 47.36477 8.27980 10381 ft 290 kts 242°
2026-05-01 15:23 47.35562 8.25221 10769 ft 310 kts 242°
2026-05-01 15:23 47.34575 8.22339 11365 ft 317 kts 242°
2026-05-01 15:24 47.33864 8.19248 12125 ft 322 kts 260°
2026-05-01 15:24 47.33883 8.15932 12893 ft 326 kts 276°
2026-05-01 15:24 47.34217 8.12651 13635 ft 330 kts 277°
2026-05-01 15:24 47.34572 8.09287 14333 ft 334 kts 277°
2026-05-01 15:25 47.34925 8.05889 15016 ft 337 kts 277°
2026-05-01 15:25 47.35274 8.02451 15700 ft 340 kts 277°
2026-05-01 15:25 47.35620 7.98970 16275 ft 349 kts 277°
2026-05-01 15:25 47.35996 7.95362 16600 ft 364 kts 278°
2026-05-01 15:26 47.36376 7.91584 16865 ft 380 kts 277°
2026-05-01 15:26 47.36766 7.87659 17275 ft 391 kts 277°
2026-05-01 15:26 47.37155 7.83671 17912 ft 395 kts 278°
2026-05-01 15:26 47.37553 7.79642 18572 ft 398 kts 278°
2026-05-01 15:27 47.37943 7.75594 19168 ft 400 kts 278°
2026-05-01 15:27 47.38334 7.71513 19713 ft 404 kts 278°
2026-05-01 15:27 47.38727 7.67392 20276 ft 407 kts 278°
2026-05-01 15:28 47.39518 7.59050 21363 ft 413 kts 278°
2026-05-01 15:28 47.39915 7.54833 21916 ft 416 kts 278°
2026-05-01 15:28 47.40310 7.50587 22449 ft 419 kts 278°
2026-05-01 15:29 47.41107 7.42017 23509 ft 424 kts 278°
2026-05-01 15:29 47.41511 7.37673 23959 ft 428 kts 278°
2026-05-01 15:29 47.42317 7.28973 24838 ft 432 kts 278°
2026-05-01 15:30 47.42970 7.21619 25534 ft 436 kts 277°
2026-05-01 15:31 47.44706 7.02111 27305 ft 446 kts 277°
2026-05-01 15:31 47.45516 6.93007 27742 ft 450 kts 277°
2026-05-01 15:32 47.46339 6.83785 28455 ft 454 kts 277°
2026-05-01 15:32 47.47888 6.74822 29170 ft 458 kts 294°
2026-05-01 15:33 47.52690 6.62474 30285 ft 462 kts 299°
2026-05-01 15:34 47.57523 6.50216 31417 ft 458 kts 298°